Location: Ellerstadt
(49.4644°N, 8.2615°E)
Time: 03:43:59
(UTC+00:00)

Cosmos 1933 Rocket - Pass Details

Date: 03 March 2021
Orbit: 607 x 630 km, 82.5° (Epoch: 16 April)

Event Time Altitude Azimuth Distance (km) Brightness Sun altitude
Rises 18:56:50 0° 195° (SSW) 2,861 7.0 -17.6°
Reaches altitude 10° 18:59:03 10° 198° (SSW) 1,965 6.2 -17.9°
Maximum altitude 19:03:23 68° 281° (W) 664 3.8 -18.6°
Drops below altitude 10° 19:07:47 10° 5° (N) 1,994 6.2 -19.3°
Sets 19:10:03 0° 8° (N) 2,909 7.1 -19.7°
